Regional Weather Roundup
Issued by NWS

Home | Current Version | Previous Version | Text Only | Print | Product List | Glossary On
Versions: 1 2 3 4 5 6 7 8 9 10 11 12 13 14 15 16 17 18 19 20 21 22 23 24 25 26 27 28 29 30 31 32 33 34 35 36 37 38 39 40 41 42 43 44 45 46 47 48 49 50
165
ASUS43 KFSD 211202
RWRSD

WEATHER ROUNDUP FOR SOUTH DAKOTA
NATIONAL WEATHER SERVICE SIOUX FALLS SD
700 AM CDT MON MAY 21 2018

NOTE: "FAIR" INDICATES FEW OR NO CLOUDS BELOW 12,000 FEET WITH NO
SIGNIFICANT WEATHER AND/OR OBSTRUCTIONS TO VISIBILITY.


SDZ001>005-009-010-012>017-211300-
NORTHWEST AND NORTH CENTRAL SOUTH DAKOTA

CITY           SKY/WX    TMP DP  RH WIND       PRES   REMARKS
BUFFALO          N/A     45  37  73 SE8       29.92F
FAITH            N/A     43  39  86 SE12      30.02R
MOBRIDGE       PTCLDY    54  43  66 E10       30.00F
$$

SDZ012>016-024>037-041>051-057-063-072>074-211300-
SOUTHWEST AND SOUTH CENTRAL SOUTH DAKOTA

CITY           SKY/WX    TMP DP  RH WIND       PRES   REMARKS
RAPID CTY ARPT CLEAR     40  37  89 SE6       30.00S
PIERRE         PTCLDY    47  43  86 SW3       30.02R
CUSTER         CLEAR     42  35  76 SW6       30.04S
ELLSWORTH AFB  CLEAR     44  42  92 S6        29.98F
PHILIP         PTCLDY    38  37  97 CALM      30.04R
PINE RIDGE     CLEAR     46  42  86 NW3       30.02S
WINNER         PTSUNNY   52  46  80 SW7       30.05R
$$

SDZ004>011-016>023-039-040-211300-
NORTHEAST SOUTH DAKOTA

CITY           SKY/WX    TMP DP  RH WIND       PRES   REMARKS
ABERDEEN       CLOUDY    57  51  80 CALM      30.05F
WATERTOWN      CLOUDY    56  54  93 SE6       30.04F
BROOKINGS      CLOUDY    55  53  93 SE5         N/A
SISSETON         N/A     54  43  66 CALM      30.05F
$$

SDZ017-020-022-023-036>040-048>070-211300-
SOUTHEAST SOUTH DAKOTA

CITY           SKY/WX    TMP DP  RH WIND       PRES   REMARKS
SIOUX FALLS    LGT RAIN  55  55 100 E3        30.04F FOG
HURON          CLOUDY    54  53  97 E5        30.03F FOG
CHAMBERLAIN    CLOUDY    53  53 100 CALM      30.04S
MITCHELL       LGT RAIN  54  53  97 SE5       30.05S FOG
YANKTON        CLOUDY    53  52  96 CALM      30.05S FOG
$$

ABBREVIATIONS USED IN REMARKS
   TC - TEMPERATURE IN CELSIUS
  WCI - WIND CHILL INDEX
   HX - HEAT INDEX
  VSB - VISIBILITY





USA.gov is the U.S. government's official web portal to all federal, state and local government web resources and services.